Fort Mitchell, AL

9:27 AM CST on February 19, 2017 (GMT -0600)
Lawson Army Air Field

Weather History for KLSF - May, 2013

Change the Weather History Date:

Wednesday, May 22, 2013

  Actual Average Record
Temperature  
Mean Temperature 76 °F -  
Max Temperature 89 °F 83 °F 97 °F (2011)
Min Temperature 64 °F 59 °F 46 °F (2002)
Cooling Degree Days 11    
Growing Degree Days 26 (Base 50)    
Moisture  
Dew Point 67 °F    
Average Humidity 74    
Maximum Humidity 100    
Minimum Humidity 50    
Precipitation  
Precipitation 0.00 in - - ()
Sea Level Pressure  
Sea Level Pressure 29.94 in    
Wind  
Wind Speed 5 mph (SW)    
Max Wind Speed 10 mph    
Max Gust Speed 21 mph    
Visibility 10 miles    
Events      
Averages and records for this station are not official NWS values.
T = Trace of Precipitation, MM = Missing Value Source: NWS Daily Summary

Daily Weather History Graph

Daily Weather History Graph

Search for Another Location

Airport or City:

Trip Planner

Search our weather history database for the weather conditions in past years. The results will help you decide how hot, cold, wet, or windy it might be!

Date:

Astronomy

May. 22, 2013 Rise Set
Actual Time 6:37 AM EDT 8:36 PM EDT
Civil Twilight 6:10 AM EDT 9:03 PM EDT
Nautical Twilight 5:36 AM EDT 9:36 PM EDT
Astronomical Twilight 5:01 AM EDT 10:12 PM EDT
Moon 6:04 PM EDT (5/22) 4:31 AM EDT (5/22)
Length of Visible Light 14h 53m
Length of Day
13h 58m
Waxing Gibbous, 91% of the Moon is Illuminated
May 22
Waxing Gibbous
May 25
Full
May 31
Last Quarter
Jun 8
New
Jun 16
First Quarter

Hourly Weather History & Observations

Time (EDT) Temp. Heat Index Dew Point Humidity Pressure Visibility Wind Dir Wind Speed Gust Speed Precip Events Conditions
12:58 AM 75.2 °F - 66.2 °F 73% 29.96 in 10.0 mi SSE 8.1 mph 20.7 mph N/A   Clear
1:58 AM 73.4 °F - 65.3 °F 76% 29.94 in 10.0 mi SSE 6.9 mph - N/A   Clear
2:58 AM 70.7 °F - 64.6 °F 81% 29.94 in 10.0 mi SSE 6.9 mph - N/A   Clear
3:58 AM 66.0 °F - 64.6 °F 95% 29.94 in 10.0 mi West 2.3 mph - N/A   Clear
4:58 AM 65.3 °F - 64.2 °F 96% 29.96 in 10.0 mi WSW 2.3 mph - N/A   Clear
5:38 AM 64.4 °F - 64.4 °F 100% 29.96 in 10.0 mi Calm Calm - N/A   Mostly Cloudy
5:43 AM 64.4 °F - 64.4 °F 100% 29.96 in 10.0 mi Calm Calm - N/A   Scattered Clouds
5:53 AM 64.4 °F - 64.4 °F 100% 29.97 in 10.0 mi North 2.3 mph - N/A   Mostly Cloudy
5:58 AM 64.4 °F - 64.0 °F 99% 29.97 in 10.0 mi Calm Calm - N/A   Mostly Cloudy
6:58 AM 66.7 °F - 65.8 °F 97% 29.99 in 10.0 mi South 2.3 mph - N/A   Overcast
7:58 AM 69.8 °F - 66.6 °F 89% 29.99 in 10.0 mi SSE 2.3 mph - N/A   Clear
8:58 AM 74.1 °F - 68.2 °F 82% 29.99 in 10.0 mi Variable 2.3 mph - N/A   Clear
9:58 AM 77.9 °F - 68.4 °F 72% 29.99 in 10.0 mi Variable 3.5 mph - N/A   Clear
10:58 AM 80.4 °F 83.1 °F 68.0 °F 66% 29.99 in 10.0 mi West 4.6 mph - N/A   Partly Cloudy
11:58 AM 82.4 °F 85.2 °F 67.8 °F 61% 29.99 in 10.0 mi SW 5.8 mph - N/A   Clear
12:58 PM 84.4 °F 87.1 °F 67.3 °F 56% 29.99 in 10.0 mi Variable 5.8 mph - N/A   Partly Cloudy
1:58 PM 85.8 °F 89.1 °F 68.2 °F 55% 29.96 in 10.0 mi West 10.4 mph - N/A   Clear
2:58 PM 87.1 °F 90.2 °F 67.6 °F 52% 29.94 in 10.0 mi West 10.4 mph - N/A   Partly Cloudy
3:58 PM 88.2 °F 91.7 °F 67.8 °F 51% 29.91 in 10.0 mi SSW 9.2 mph - N/A   Clear
4:58 PM 88.5 °F 91.9 °F 67.5 °F 50% 29.88 in 10.0 mi South 4.6 mph - N/A   Clear
5:58 PM 88.7 °F 92.6 °F 68.2 °F 51% 29.87 in 10.0 mi SW 9.2 mph - N/A   Clear
6:58 PM 87.3 °F 90.5 °F 67.5 °F 52% 29.86 in 10.0 mi SSW 8.1 mph - N/A   Clear
7:58 PM 81.9 °F 85.6 °F 69.8 °F 67% 29.88 in 10.0 mi WSW 5.8 mph - N/A   Clear
8:58 PM 79.9 °F - 66.6 °F 64% 29.89 in 10.0 mi WSW 5.8 mph - N/A   Mostly Cloudy
9:58 PM 77.0 °F - 66.0 °F 69% 29.91 in 10.0 mi West 5.8 mph - N/A   Partly Cloudy
10:58 PM 77.0 °F - 66.7 °F 70% 29.92 in 10.0 mi West 5.8 mph - N/A   Overcast
11:58 PM 75.4 °F - 66.0 °F 73% 29.94 in 10.0 mi West 3.5 mph - N/A   Mostly Cloudy